CDT,Max TemperatureF,Mean TemperatureF,Min TemperatureF,Max Dew PointF,MeanDew PointF,Min DewpointF,Max Humidity, Mean Humidity, Min Humidity, Max Sea Level PressureIn, Mean Sea Level PressureIn, Min Sea Level PressureIn, Max VisibilityMiles, Mean VisibilityMiles, Min VisibilityMiles, Max Wind SpeedMPH, Mean Wind SpeedMPH, Max Gust SpeedMPH,PrecipitationIn, CloudCover, Events, WindDirDegrees
2013-5-1,39,35,30,36,29,24,96,80,56,30.54,30.34,30.04,10,6,0,21,13,26,0.18,7,Rain-Snow-Thunderstorm,10
2013-5-2,54,42,30,28,23,13,79,53,19,30.66,30.55,30.41,10,10,10,12,5,21,0.00,3,,333
2013-5-3,57,42,26,30,21,13,90,49,17,30.41,30.24,30.12,10,10,10,15,3,25,0.00,0,,34
2013-5-4,55,40,24,26,20,16,80,46,22,30.25,30.18,30.15,10,10,10,23,7,31,0.00,1,,357
2013-5-5,63,45,27,26,19,10,79,42,13,30.25,30.19,30.11,10,10,10,13,6,17,0.00,0,,331
2013-5-6,73,51,30,36,26,18,82,42,13,30.15,30.08,30.00,10,10,10,14,2,18,0.00,1,,178
2013-5-7,69,59,49,51,45,33,87,63,39,30.07,29.99,29.90,10,10,3,22,11,32,0.27,6,Rain-Thunderstorm,144
2013-5-8,73,59,45,50,44,36,93,61,28,30.03,29.96,29.89,10,10,7,17,8,25,0.10,2,Rain-Thunderstorm,356
2013-5-9,68,57,48,49,44,39,88,61,37,30.14,30.09,30.01,10,10,7,22,10,29,0.00,4,,15
2013-5-10,74,60,46,45,39,34,86,51,24,30.21,30.13,30.06,10,10,10,26,4,37,0.00,3,,323
2013-5-11,63,52,42,45,26,18,66,38,18,30.38,30.30,30.22,10,10,10,20,10,25,0.00,1,,1
2013-5-12,75,57,39,38,27,19,54,34,16,30.26,30.14,30.03,10,10,10,15,6,17,0.00,1,,128
2013-5-13,93,74,55,46,38,31,65,33,11,30.04,29.96,29.90,10,10,10,15,8,24,0.00,0,,227
2013-5-14,91,76,62,43,38,32,46,25,13,29.95,29.83,29.80,10,10,5,17,9,34,0.00,0,,349
2013-5-15,80,69,58,41,34,27,52,28,14,30.00,29.93,29.87,10,10,10,25,13,30,0.00,1,Rain-Thunderstorm,95
2013-5-16,78,65,52,59,48,37,90,60,33,29.93,29.84,29.76,10,10,5,17,4,30,0.22,3,Rain-Thunderstorm,169
2013-5-17,88,70,52,57,51,46,91,56,24,29.90,29.84,29.76,10,10,10,26,8,34,0.00,0,Thunderstorm,179
2013-5-18,77,66,56,64,59,53,92,77,59,29.87,29.80,29.65,10,7,2,28,12,34,0.68,5,Rain-Thunderstorm,96
2013-5-19,66,60,55,57,54,52,91,84,66,29.79,29.68,29.59,10,9,2,17,7,24,0.78,6,Rain-Thunderstorm,302
2013-5-20,61,56,50,54,49,44,94,80,53,29.76,29.67,29.63,10,9,2,23,13,33,0.17,7,Rain,293
2013-5-21,56,51,47,44,42,40,86,73,60,29.92,29.81,29.75,10,10,4,31,20,41,0.04,7,Rain,319
2013-5-22,62,54,46,47,44,41,90,73,55,30.13,29.96,29.87,10,10,3,22,15,28,0.00,8,Rain,343
2013-5-23,70,58,45,46,43,37,92,61,32,30.23,30.17,30.13,10,10,10,25,11,33,0.00,1,,95
2013-5-24,75,64,53,59,52,46,81,68,43,30.16,30.06,29.94,10,10,10,29,17,36,0.00,5,Thunderstorm,158
2013-5-25,83,70,59,64,56,47,90,60,38,29.99,29.93,29.86,10,10,7,24,13,37,0.10,1,Rain-Thunderstorm,153
2013-5-26,82,70,58,65,61,54,91,72,44,29.89,29.85,29.80,10,9,5,17,7,25,0.00,4,Rain-Thunderstorm,109
2013-5-27,78,68,59,61,57,50,93,72,47,29.86,29.77,29.63,10,9,4,23,10,33,0.44,4,Rain-Thunderstorm,119
2013-5-28,81,68,55,59,54,47,91,67,30,29.80,29.74,29.64,10,10,7,20,6,25,0.00,3,Thunderstorm,121
2013-5-29,70,63,56,61,56,53,92,84,69,29.80,29.60,29.49,10,9,1,29,11,47,1.56,7,Rain-Thunderstorm,59
2013-5-30,76,64,54,54,47,39,89,60,27,29.66,29.54,29.49,10,10,10,28,14,39,0.00,3,,260
2013-5-31,65,58,51,47,42,39,85,58,40,29.82,29.70,29.65,10,10,10,38,24,51,0.00,4,Rain,279